Location: Bouchavesnes-Bergen
(49.9859°N, 2.9203°E)
Time: 22:36:39
(UTC+00:00)

NOAA 16 DEB - Pass Details

Date: 01 October 2021
Orbit: 798 x 841 km, 98.8° (Epoch: 23 October)

Event Time Altitude Azimuth Distance (km) Brightness Sun altitude
Exits shadow 21:29:33 15° 18° (NNE) 2,040 ? -36.2°
Drops below altitude 10° 21:30:47 10° 8° (N) 2,386 ? -36.4°
Sets 21:33:33 0° 354° (N) 3,319 ? -36.7°
